sat.trackr.live / text

‹ back to catalog

LEMUR-1

NORAD 40044 · 2014-033AL

PAYLOAD ACTIVE UNKNOWN

§ Identity

Operator
Country
US
Launch date
2014-06-19
Launch site
DLS
Launch vehicle
Mass (kg)
RCS (m²)
0.06

Purposes: earth_obs

External: N2YO · Heavens-Above · Gunter

§ Orbital elements

Epoch: 2026-05-24T23:35:27.274848Z

Period
96.96 min
Inclination
97.7850°
Eccentricity
0.0049165
Mean motion
14.85126588 rev/d
Perigee alt
578.8 km
Apogee alt
647.6 km
Semi-major
6,991.3 km
B*
2.3127e-4
RAAN
295.3097°
Arg perigee
152.8989°
Mean anomaly
207.4808°
Rev number
64,202

§ Raw data

LEMUR-11 40044U 14033AL  26144.98295457  .00001966  00000+0  23127-3 0  99982 40044  97.7850 295.3097 0049165 152.8989 207.4808 14.85126588642023

JSON: /api/v1/satellites/40044 · /tle

For live sub-satellite position, see the globe view (requires WebGL).

§ Visibility from observer

Set your observer location to see the next 7 days of passes ≥ 10°. The values pass through the URL so the page stays shareable.

No JS? Fill the form by hand. The geolocation button needs JavaScript.